This is the latest recevied weather packets stored in our database for station/object DB0TV-13. If no packets are shown the sender has not sent any weather packets the latest 1 day(s).
| Time | Temp. | Humidity | Pressure | Rain* | Wind** | Luminosity | Snow |
|---|---|---|---|---|---|---|---|
| 1778017218 | 9.44° C | 97% | 1006.6 hPa | 1.78 mm | 0.89 m/s, 68° | 0 W/m² | - |
| 1778016618 | 9.44° C | 97% | 1006.6 hPa | 1.52 mm | 0.89 m/s, 23° | 0 W/m² | - |
| 1778016018 | 9.44° C | 97% | 1006.7 hPa | 1.78 mm | 0.89 m/s, 23° | 0 W/m² | - |
| 1778015418 | 9.44° C | 97% | 1006.8 hPa | 2.79 mm | 1.34 m/s, 45° | 0 W/m² | - |
| 1778014819 | 9.44° C | 97% | 1006.8 hPa | 3.3 mm | 0.89 m/s, 45° | 0 W/m² | - |
| 1778014218 | 9.44° C | 97% | 1006.7 hPa | 3.05 mm | 0.89 m/s, 45° | 0 W/m² | - |
| 1778013619 | 9.44° C | 97% | 1006.8 hPa | 2.54 mm | 1.34 m/s, 45° | 0 W/m² | - |
| 1778013018 | 9.44° C | 97% | 1006.9 hPa | 2.54 mm | 1.34 m/s, 23° | 0 W/m² | - |
| 1778012418 | 9.44° C | 97% | 1006.8 hPa | 2.29 mm | 1.34 m/s, 23° | 0 W/m² | - |
| 1778011819 | 9.44° C | 97% | 1006.7 hPa | 1.52 mm | 1.34 m/s, 45° | 0 W/m² | - |
| 1778011218 | 9.44° C | 97% | 1006.7 hPa | 0.76 mm | 1.34 m/s, 45° | 0 W/m² | - |
| 1778010618 | 9.44° C | 97% | 1006.7 hPa | 0.76 mm | 1.34 m/s, 45° | 0 W/m² | - |
| 1778010018 | 9.44° C | 97% | 1006.7 hPa | 1.02 mm | 1.34 m/s, 45° | 0 W/m² | - |
| 1778009418 | 10° C | 97% | 1006.8 hPa | 0.76 mm | 1.79 m/s, 23° | 0 W/m² | - |
| 1778008818 | 10° C | 97% | 1006.8 hPa | 0.76 mm | 1.34 m/s, 45° | 0 W/m² | - |
| 1778008218 | 10° C | 97% | 1006.8 hPa | 0.51 mm | 1.79 m/s, 23° | 0 W/m² | - |
| 1778007618 | 10° C | 97% | 1006.7 hPa | 0.51 mm | 0.89 m/s, 45° | 0 W/m² | - |
| 1778007018 | 10° C | 97% | 1006.7 hPa | 0.51 mm | 1.34 m/s, 45° | 0 W/m² | - |
| 1778006418 | 10° C | 97% | 1006.7 hPa | 0.51 mm | 1.34 m/s, 45° | 0 W/m² | - |
| 1778005820 | 10° C | 97% | 1006.7 hPa | 0.51 mm | 1.34 m/s, 45° | 0 W/m² | - |
| 1778005218 | 10° C | 97% | 1006.6 hPa | 0.25 mm | 1.34 m/s, 45° | 6 W/m² | - |
| 1778004618 | 10° C | 97% | 1006.7 hPa | 0.25 mm | 1.34 m/s, 45° | 8 W/m² | - |
| 1778004021 | 10° C | 97% | 1006.8 hPa | 0.25 mm | 1.34 m/s, 45° | 9 W/m² | - |
| 1778003420 | 10° C | 97% | 1006.8 hPa | 0 mm | 1.34 m/s, 23° | 12 W/m² | - |
| 1778002818 | 10° C | 96% | 1006.8 hPa | 0 mm | 1.34 m/s, 23° | 13 W/m² | - |
* Rain latest hour (hover to see other rain measurements)
** Current wind speed in m/s (hover to see current wind gust speed)